This is the latest recevied weather packets stored in our database for station/object NEWPRT. If no packets are shown the sender has not sent any weather packets the latest 10 day(s).
| Time | Temp. | Humidity | Pressure | Rain* | Wind** | Luminosity | Snow |
|---|---|---|---|---|---|---|---|
| 1777769388 | - | 67% | 1013.7 hPa | 0 mm | - | - | - |
| 1777769065 | - | 69% | 1013.7 hPa | 0 mm | - | - | - |
| 1777768742 | - | 68% | 1013.8 hPa | 0 mm | - | - | - |
| 1777768419 | - | 69% | 1013.7 hPa | 0 mm | - | - | - |
| 1777768096 | - | 68% | 1013.6 hPa | 0 mm | - | - | - |
| 1777767773 | - | 66% | 1013.8 hPa | 0 mm | - | - | - |
| 1777767450 | - | 67% | 1013.7 hPa | 0 mm | - | - | - |
| 1777767127 | - | 66% | 1013.8 hPa | 0 mm | - | - | - |
| 1777766804 | - | 66% | 1013.9 hPa | 0 mm | - | - | - |
| 1777766481 | - | 68% | 1013.9 hPa | 0 mm | - | - | - |
| 1777766158 | - | 66% | 1013.8 hPa | 0 mm | - | - | - |
| 1777765835 | - | 67% | 1013.8 hPa | 0 mm | - | - | - |
| 1777765512 | - | 67% | 1013.8 hPa | 0 mm | - | - | - |
| 1777765189 | - | 68% | 1013.8 hPa | 0 mm | - | - | - |
| 1777764866 | - | 65% | 1013.7 hPa | 0 mm | - | - | - |
| 1777764543 | - | 69% | 1014 hPa | 0 mm | - | - | - |
| 1777764220 | - | 71% | 1014 hPa | 0 mm | - | - | - |
| 1777763897 | - | 70% | 1014.1 hPa | 0 mm | - | - | - |
| 1777763574 | - | 73% | 1014.4 hPa | 0 mm | - | - | - |
| 1777763251 | - | 73% | 1014.4 hPa | 0 mm | - | - | - |
| 1777762928 | - | 71% | 1014.6 hPa | 0 mm | - | - | - |
| 1777762605 | - | 70% | 1014.6 hPa | 0 mm | - | - | - |
| 1777762282 | - | 69% | 1014.8 hPa | 0 mm | - | - | - |
| 1777761959 | - | 71% | 1014.9 hPa | 0 mm | - | - | - |
| 1777761635 | - | 72% | 1014.9 hPa | 0 mm | - | - | - |
* Rain latest hour (hover to see other rain measurements)
** Current wind speed in m/s (hover to see current wind gust speed)